Probability
0 0 0 0 0 0 0 0 0 0 0 1 2 3 3 4 6 6 7 8 8 9 11 13 15 17 21 22 24 27 29 28 29 30 30 28 27 26 25 25 25 24 20 17
0 0 0 0 0 0 0 0 0 0 0 0 1 1 2 3 4 5 7 9 11 11 12 14 16 20 25 27 27 29 31 30 29 29 28 26 25 25 25 25 25 24 22 21
0 0 0 0 0 0 0 0 0 0 0 0 1 0 0 1 1 4 8 11 12 11 12 14 16 21 26 29 31 31 32 31 30 29 27 25 24 24 23 23 23 23 24 24
0 0 0 0 0 0 0 0 0 0 0 0 0 0 0 0 0 2 6 11 12 10 11 14 17 19 23 27 30 31 31 31 30 30 28 26 25 24 22 21 22 22 23 24
0 0 0 0 0 0 0 0 0 0 0 0 0 0 0 0 0 1 5 9 10 9 11 14 17 19 21 24 27 28 28 29 29 30 28 27 25 24 22 20 20 21 22 22
0 0 0 0 0 0 0 0 0 0 0 0 0 0 0 0 0 1 4 8 10 10 11 13 15 16 17 21 23 24 24 26 28 28 27 26 24 22 21 19 18 18 19 20
0 0 0 0 0 0 0 0 0 0 0 0 0 0 0 0 0 3 6 9 9 10 11 13 13 13 15 18 21 21 22 24 25 24 23 23 23 21 18 17 16 16 17 19
0 0 0 0 0 0 0 0 0 0 0 0 0 0 0 0 1 5 8 9 7 6 9 12 13 14 15 18 21 22 23 23 21 19 18 20 22 21 18 17 16 16 17 18
0 0 0 0 0 0 0 0 0 0 0 0 0 0 0 1 2 5 8 8 5 3 5 9 12 14 16 18 22 24 22 21 19 16 15 16 18 18 17 16 16 16 16 16
0 0 0 0 0 0 0 0 0 0 0 0 0 1 1 1 3 4 6 7 5 2 3 7 10 13 16 18 20 22 20 18 16 14 12 12 13 13 13 13 14 14 14 15
0 0 0 0 0 0 0 0 0 0 0 0 0 0 1 2 4 4 4 4 4 4 4 6 7 11 13 15 17 19 18 15 13 12 11 10 10 10 10 10 11 11 12 12
0 0 0 0 0 0 0 0 0 0 0 0 0 1 2 3 4 3 3 2 2 4 6 5 6 8 10 12 14 17 16 14 12 12 11 10 9 8 8 8 8 8 8 8
0 0 0 0 0 0 0 0 0 0 0 0 1 2 3 4 4 4 3 1 1 3 5 6 5 6 9 12 14 16 15 13 13 13 12 10 8 5 4 4 5 5 5 4
0 0 0 0 0 0 0 0 0 0 0 0 1 2 4 4 5 5 3 1 1 2 4 6 6 7 10 13 14 15 15 14 14 13 11 9 6 3 1 1 1 2 3 3
0 0 0 0 0 0 0 0 0 0 0 0 1 2 3 4 6 5 3 1 1 3 5 6 8 9 11 13 13 14 16 17 15 13 10 7 4 3 2 1 1 1 2 3
0 0 0 0 0 0 0 0 0 1 1 1 2 2 3 4 6 5 4 3 3 4 6 7 9 12 12 13 13 15 18 18 15 13 10 7 4 3 3 3 2 2 3 4
1 1 0 0 0 0 0 0 0 1 1 1 1 3 4 5 6 5 5 5 5 5 6 7 10 12 12 12 12 13 15 15 14 13 10 6 4 3 3 3 3 3 4 5
2 1 0 0 0 0 0 0 0 1 1 0 1 3 5 6 5 4 5 6 6 5 5 7 9 11 11 11 10 11 12 12 12 12 10 6 4 4 3 3 3 3 4 5
1 1 0 0 0 0 0 0 0 0 0 0 1 3 6 6 4 3 4 5 5 5 4 6 9 11 11 9 9 10 11 12 12 11 10 7 5 4 4 3 3 3 4 5
0 0 0 0 0 0 0 0 0 0 0 0 0 2 5 7 6 3 3 4 4 4 4 6 9 11 10 8 8 9 11 11 11 10 8 6 4 4 3 3 3 3 4 5
0 0 0 0 0 0 0 0 0 0 0 0 0 0 3 6 5 4 4 4 2 2 4 7 9 9 8 7 7 8 9 10 10 9 6 4 4 3 3 3 3 3 4 5
0 0 0 0 0 0 0 0 0 0 0 0 0 0 1 3 4 4 4 3 1 0 3 7 9 8 6 6 6 6 6 7 7 6 5 4 4 3 3 3 3 3 4 5
0 0 0 0 0 0 0 0 0 0 0 1 2 1 1 3 5 5 4 1 0 1 3 5 6 5 4 4 5 4 3 3 4 4 4 4 3 3 3 3 3 3 3 3
0 0 0 0 0 0 0 1 1 1 1 2 3 2 2 4 6 5 2 1 0 1 3 4 4 4 4 3 3 2 1 0 1 2 3 3 3 3 3 3 2 2 1 1
0 0 0 0 0 0 0 1 2 2 2 2 3 2 3 5 5 3 1 1 1 2 4 5 5 5 5 4 2 1 0 0 0 2 3 3 3 3 2 1 1 1 0 0
0 0 0 0 0 0 0 1 3 3 3 2 1 1 3 4 3 2 2 1 3 4 5 6 6 6 6 5 2 1 0 0 1 2 2 3 3 3 1 0 0 0 0 0
Wind_Speed
3 2 6 10 11 10 7 7 10 12 9 3 4 5 5 4 3 4 5 6 6 6 5 6 7 8 8 7 8 9 9 8 6 5 5 4 4 3 3 3 5 7 6 6
2 7 13 10 8 7 8 9 11 12 9 3 3 4 4 1 5 7 8 8 8 6 4 5 6 7 8 8 8 8 8 8 7 5 5 4 4 4 4 3 4 6 6 6
9 10 7 6 8 7 9 8 9 9 8 3 1 5 4 3 2 2 5 7 8 10 9 8 7 8 8 8 8 8 8 8 7 5 3 3 2 1 1 3 3 5 6 6
8 10 7 6 8 6 9 9 7 7 4 5 0 2 6 3 3 2 1 3 5 7 9 9 8 8 8 7 7 6 6 7 6 7 6 6 5 4 4 4 3 3 4 5
7 6 7 8 10 7 9 8 5 4 2 2 2 1 6 1 1 2 2 3 4 5 8 9 9 9 7 7 6 5 5 5 5 6 7 7 5 4 2 3 4 4 3 4
9 7 5 8 9 8 6 2 3 3 3 2 5 3 4 2 3 3 1 2 3 4 5 7 7 7 6 6 6 5 5 4 4 5 6 6 6 5 4 4 4 4 2 3
7 8 7 4 6 7 0 3 3 5 3 4 3 2 5 4 2 2 2 2 2 3 5 6 7 7 7 7 7 6 6 4 4 5 5 5 6 6 6 5 5 4 2 2
3 7 6 4 6 6 4 7 7 5 5 4 2 3 4 3 1 1 2 3 3 2 4 5 7 7 7 8 8 7 7 5 5 5 4 4 5 4 4 4 4 4 3 3
4 6 6 4 3 5 3 3 7 6 2 1 3 3 3 2 3 2 1 3 3 2 3 4 5 6 7 7 8 8 8 6 5 5 4 4 4 4 4 4 3 3 3 3
5 4 6 4 3 1 4 4 4 4 4 3 3 3 4 4 4 2 1 2 1 1 2 4 5 5 5 6 6 6 6 6 4 5 5 4 4 4 4 3 4 3 3 3
2 2 6 4 1 3 2 2 3 2 5 6 4 5 4 6 4 1 1 1 1 1 3 3 4 5 5 4 5 5 5 5 4 4 4 4 3 3 3 3 4 3 3 3
1 3 3 6 6 3 3 2 4 3 3 3 3 6 2 2 1 1 2 1 0 0 2 3 4 5 4 5 5 5 5 5 5 5 4 4 3 3 3 3 3 3 3 3
1 4 2 7 7 5 3 1 1 3 3 3 4 5 1 1 2 1 1 1 1 1 2 2 2 3 3 3 4 4 5 5 5 5 4 4 3 3 3 3 2 3 3 3
3 3 5 5 5 3 4 5 3 3 2 3 5 4 3 3 2 3 2 1 1 1 2 2 2 3 3 3 3 4 4 4 5 5 5 4 4 4 3 3 3 3 3 3
4 2 2 3 4 2 4 5 4 1 3 5 4 4 4 4 2 1 1 1 2 1 2 2 1 2 3 3 3 3 3 3 4 5 5 5 4 3 3 3 3 3 3 3
2 1 0 3 2 2 5 5 3 2 1 1 1 2 3 2 0 1 1 1 2 1 1 1 1 2 2 2 3 3 3 3 4 4 5 4 3 3 3 3 3 3 3 3
0 2 1 3 4 3 4 3 1 0 1 2 2 4 1 1 0 1 1 1 1 1 1 2 2 2 2 2 3 4 4 4 4 4 3 3 3 3 3 3 2 3 3 3
3 2 2 1 1 4 4 0 1 1 1 1 1 1 2 3 2 2 2 2 1 1 1 1 1 1 2 2 2 3 3 4 5 4 3 3 3 3 3 3 3 3 3 3
5 5 3 2 2 4 3 2 2 1 3 1 1 1 2 1 2 2 1 1 2 2 2 2 1 1 1 1 2 3 3 3 4 3 3 4 4 3 3 3 3 3 2 3
1 3 4 2 3 4 3 5 4 2 3 3 2 1 1 1 1 4 2 2 1 1 1 1 0 1 1 1 2 3 3 3 3 3 3 3 4 4 4 4 3 2 3 3
3 3 1 2 3 3 4 5 4 2 4 4 3 2 2 2 4 4 3 1 1 0 1 1 1 1 1 1 2 3 3 2 2 2 2 2 2 3 3 3 2 2 2 2
1 0 0 1 2 5 4 3 1 4 4 5 5 4 3 2 1 1 1 1 1 1 1 1 2 1 1 1 2 2 1 1 1 1 1 1 1 2 2 2 2 2 2 2
1 2 3 3 4 4 2 1 3 3 4 5 5 5 3 2 1 1 2 2 1 2 1 1 2 1 2 1 1 1 1 0 1 1 1 1 0 1 1 2 2 2 2 2
2 1 1 1 2 3 3 2 3 3 4 5 5 3 2 3 2 1 2 2 2 2 2 1 1 2 1 2 1 0 1 1 2 1 1 1 1 1 0 0 1 2 2 2
3 2 1 2 3 3 3 3 4 5 4 4 3 1 2 3 2 2 2 3 3 2 1 2 2 1 0 1 1 1 1 1 2 1 0 0 0 1 1 0 1 2 3 4
1 2 2 4 4 2 5 5 4 4 4 3 2 1 1 1 2 1 2 2 3 3 2 2 2 1 0 1 1 1 1 1 2 1 0 0 0 0 1 1 1 2 3 4
Wind_Direction
233 149 227 229 216 218 238 260 275 278 282 296 269 267 265 238 181 171 172 179 170 179 170 150 152 151 147 151 156 162 164 169 161 160 161 166 179 185 188 193 185 183 183 179
327 248 238 237 242 240 248 259 273 287 287 264 263 283 281 215 192 181 175 177 167 157 141 148 148 148 152 157 159 160 163 166 170 176 174 175 171 180 182 192 192 189 183 180
214 243 244 237 248 245 254 240 252 265 297 324 10 328 326 332 32 146 174 173 164 160 162 162 159 159 156 160 165 168 170 168 170 165 147 125 103 97 148 186 199 199 188 183
240 249 259 258 250 233 259 252 244 259 288 289 163 276 298 295 9 28 169 164 172 170 165 163 162 159 163 165 161 161 166 164 167 160 162 165 175 183 195 187 191 192 188 184
245 240 237 246 247 235 240 251 246 257 251 301 332 165 280 321 354 303 249 173 180 182 172 169 171 170 165 155 150 151 158 161 164 167 170 169 175 182 171 163 167 178 190 188
251 260 226 231 251 244 238 294 335 16 65 302 266 179 269 267 238 251 244 181 176 167 165 169 168 156 148 147 141 144 150 155 162 167 173 175 177 174 165 172 176 184 187 189
286 281 268 253 278 292 301 87 12 346 359 251 273 165 240 257 246 211 193 172 133 150 157 159 154 156 157 154 149 153 155 155 163 164 168 173 172 169 174 178 179 181 183 194
237 279 263 242 220 239 233 150 167 208 228 264 300 221 250 268 298 101 151 129 109 122 148 160 164 163 163 163 162 163 165 163 170 173 174 168 166 168 175 177 175 182 188 197
205 252 273 265 240 184 206 211 180 157 191 222 256 262 287 311 341 355 104 114 122 144 149 161 166 164 166 169 171 170 170 170 176 177 168 163 165 164 166 167 167 176 176 181
175 253 285 297 355 343 177 180 97 119 162 232 254 233 238 256 268 280 125 135 145 152 160 157 161 167 172 175 174 166 163 170 172 174 171 169 169 168 166 163 173 172 173 176
129 191 300 337 296 269 2 49 101 135 165 172 223 251 222 203 215 245 258 203 185 187 175 161 169 176 173 166 166 166 167 159 169 183 170 159 171 171 161 167 178 175 169 172
141 128 265 271 268 220 154 172 139 164 243 175 180 253 270 184 210 239 271 248 144 106 163 163 170 167 169 166 170 172 170 169 177 178 167 163 161 163 168 179 186 175 174 181
103 105 9 332 336 358 34 352 115 139 135 170 185 248 314 357 340 347 354 342 16 38 119 122 132 148 165 172 174 169 172 178 176 166 163 162 167 168 177 188 189 185 184 188
115 120 162 211 250 295 315 328 341 111 157 206 214 229 297 316 325 340 354 22 45 86 126 117 133 159 167 173 173 173 179 177 171 164 164 173 183 184 188 190 191 192 190 192
84 135 210 247 276 307 308 318 330 304 207 197 215 209 239 246 250 299 359 63 80 71 108 107 142 161 154 155 170 176 182 173 173 166 172 184 187 185 182 188 203 206 203 203
58 154 309 299 303 338 325 325 314 307 297 196 175 256 260 245 172 36 11 137 123 125 146 134 146 147 148 159 173 177 183 169 163 172 181 180 177 183 190 197 204 210 214 213
252 145 124 270 298 343 308 302 296 270 316 189 238 264 280 1 359 224 230 177 181 197 171 173 191 182 183 195 196 187 186 171 161 171 176 177 179 186 198 198 193 206 211 205
177 152 152 224 0 242 240 230 134 137 356 170 189 228 209 217 236 225 194 175 214 260 249 213 208 230 233 213 199 188 169 162 165 173 181 185 182 194 202 195 201 212 204 203
180 165 153 151 213 256 289 314 293 234 282 329 51 353 332 345 13 329 282 150 201 229 241 245 217 204 228 172 154 142 140 156 164 178 190 194 190 192 195 202 213 217 204 211
62 112 131 155 196 228 266 311 316 96 278 317 347 289 282 48 293 267 281 287 267 245 196 204 345 79 109 136 127 129 142 155 177 190 197 197 190 191 202 210 213 209 204 214
17 27 106 194 221 252 297 323 10 141 252 317 316 278 238 223 226 241 251 263 242 188 163 140 113 109 121 116 110 125 130 167 195 186 188 195 198 204 204 203 209 202 208 212
109 67 231 175 210 253 324 19 102 235 278 299 299 287 272 270 286 218 200 210 199 119 89 109 106 61 9 103 116 126 168 214 178 155 178 194 212 229 212 203 213 209 201 203
152 187 185 193 218 254 306 236 238 240 281 287 287 277 240 233 237 184 199 196 207 185 148 120 117 79 5 18 113 138 238 175 126 118 149 189 180 261 226 199 198 198 183 175
311 349 102 270 273 294 320 319 305 298 287 287 287 264 189 191 188 156 175 194 211 205 162 140 119 93 21 337 15 26 286 140 119 137 192 211 155 200 305 218 191 185 189 187
284 333 316 261 280 315 325 327 317 317 321 324 331 325 164 154 158 163 194 196 199 188 175 141 144 141 199 305 346 344 1 99 112 108 72 308 202 179 172 173 244 215 221 203
266 208 209 247 258 253 281 300 316 326 318 323 350 6 312 160 171 172 180 194 177 164 145 127 128 140 190 6 350 349 347 110 114 102 34 311 275 236 188 181 332 318 258 239